Year,Month,Day,Hour,Minute,Value (Times are PST for windspeed in km/hr)
2010,01,18,00,00,6.80
2010,01,18,00,01,9.40
2010,01,18,00,02,10.60
2010,01,18,00,03,11.60
2010,01,18,00,04,10.20
2010,01,18,00,05,7.20
2010,01,18,00,06,8.30
2010,01,18,00,07,10.10
2010,01,18,00,08,8.00
2010,01,18,00,09,7.30
2010,01,18,00,10,7.20
2010,01,18,00,11,9.30
2010,01,18,00,12,9.70
2010,01,18,00,13,10.30
2010,01,18,00,14,8.90
2010,01,18,00,15,9.70
2010,01,18,00,16,11.80
2010,01,18,00,17,10.50
2010,01,18,00,18,8.30
2010,01,18,00,19,8.30
2010,01,18,00,20,8.80
2010,01,18,00,21,13.10
2010,01,18,00,22,8.70
2010,01,18,00,23,9.40
2010,01,18,00,24,8.50
2010,01,18,00,25,6.30
2010,01,18,00,26,7.70
2010,01,18,00,27,6.60
2010,01,18,00,28,10.00
2010,01,18,00,29,7.30
2010,01,18,00,30,6.40
2010,01,18,00,31,5.10
2010,01,18,00,32,5.20
2010,01,18,00,33,7.00
2010,01,18,00,34,4.70
2010,01,18,00,35,7.00
2010,01,18,00,36,8.30
2010,01,18,00,37,9.30
2010,01,18,00,38,12.10
2010,01,18,00,39,9.30
2010,01,18,00,40,9.30
2010,01,18,00,41,5.90
2010,01,18,00,42,6.80
2010,01,18,00,43,9.90
2010,01,18,00,44,8.30
2010,01,18,00,45,9.80
2010,01,18,00,46,8.90
2010,01,18,00,47,11.70
2010,01,18,00,48,17.70
2010,01,18,00,49,17.70
2010,01,18,00,50,17.70
2010,01,18,00,51,14.20
2010,01,18,00,52,9.10
2010,01,18,00,53,6.10
2010,01,18,00,54,5.40
2010,01,18,00,55,10.90
2010,01,18,00,56,8.20
2010,01,18,00,57,6.70
2010,01,18,00,58,8.60
2010,01,18,00,59,9.40
2010,01,18,01,00,4.60
2010,01,18,01,01,4.60
2010,01,18,01,02,5.30
2010,01,18,01,03,5.00
2010,01,18,01,04,3.70
2010,01,18,01,05,4.70
2010,01,18,01,06,6.40
2010,01,18,01,07,4.30
2010,01,18,01,08,5.60
2010,01,18,01,09,4.70
2010,01,18,01,10,4.50
2010,01,18,01,11,4.20
2010,01,18,01,12,4.70
2010,01,18,01,13,3.60
2010,01,18,01,14,3.00
2010,01,18,01,15,5.90
2010,01,18,01,16,2.30
2010,01,18,01,17,3.90
2010,01,18,01,18,7.60
2010,01,18,01,19,6.40
2010,01,18,01,20,9.90
2010,01,18,01,21,17.10
2010,01,18,01,22,10.50
2010,01,18,01,23,6.90
2010,01,18,01,24,12.10
2010,01,18,01,25,17.10
2010,01,18,01,26,13.40
2010,01,18,01,27,16.20
2010,01,18,01,28,10.60
2010,01,18,01,29,16.30
2010,01,18,01,30,11.90
2010,01,18,01,31,13.00
2010,01,18,01,32,13.00
2010,01,18,01,33,12.80
2010,01,18,01,34,12.10
2010,01,18,01,35,13.00
2010,01,18,01,36,14.20
2010,01,18,01,37,11.50
2010,01,18,01,38,14.90
2010,01,18,01,39,9.70
2010,01,18,01,40,16.90
2010,01,18,01,41,9.90
2010,01,18,01,42,13.40
2010,01,18,01,43,12.60
2010,01,18,01,44,9.70
2010,01,18,01,45,13.70
2010,01,18,01,46,13.00
2010,01,18,01,47,9.60
2010,01,18,01,48,14.50
2010,01,18,01,49,17.20
2010,01,18,01,50,12.10
2010,01,18,01,51,9.70
2010,01,18,01,52,9.00
2010,01,18,01,53,7.80
2010,01,18,01,54,9.50
2010,01,18,01,55,10.20
2010,01,18,01,56,8.00
2010,01,18,01,57,8.00
2010,01,18,01,58,14.00
2010,01,18,01,59,11.50
2010,01,18,02,00,13.30
2010,01,18,02,01,12.40
2010,01,18,02,02,13.30
2010,01,18,02,03,12.90
2010,01,18,02,04,15.30
2010,01,18,02,05,9.50
2010,01,18,02,06,13.40
2010,01,18,02,07,15.90
2010,01,18,02,08,15.60
2010,01,18,02,09,12.00
2010,01,18,02,10,9.10
2010,01,18,02,11,9.50
2010,01,18,02,12,9.70
2010,01,18,02,13,6.60
2010,01,18,02,14,10.50
2010,01,18,02,15,9.80
2010,01,18,02,16,7.50
2010,01,18,02,17,5.30
2010,01,18,02,18,8.40
2010,01,18,02,19,9.20
2010,01,18,02,20,5.80
2010,01,18,02,21,4.80
2010,01,18,02,22,8.10
2010,01,18,02,23,9.30
2010,01,18,02,24,14.20
2010,01,18,02,25,13.80
2010,01,18,02,26,12.20
2010,01,18,02,27,6.60
2010,01,18,02,28,8.60
2010,01,18,02,29,10.90
2010,01,18,02,30,8.30
2010,01,18,02,31,12.60
2010,01,18,02,32,14.00
2010,01,18,02,33,11.90
2010,01,18,02,34,8.60
2010,01,18,02,35,10.10
2010,01,18,02,36,17.50
2010,01,18,02,37,13.40
2010,01,18,02,38,14.80
2010,01,18,02,39,15.40
2010,01,18,02,40,14.50
2010,01,18,02,41,13.00
2010,01,18,02,42,24.20
2010,01,18,02,43,15.30
2010,01,18,02,44,14.60
2010,01,18,02,45,14.80
2010,01,18,02,46,13.90
2010,01,18,02,47,18.20
2010,01,18,02,48,12.40
2010,01,18,02,49,10.80
2010,01,18,02,50,10.70
2010,01,18,02,51,10.50
2010,01,18,02,52,9.00
2010,01,18,02,53,7.90
2010,01,18,02,54,9.70
2010,01,18,02,55,10.20
2010,01,18,02,56,10.20
2010,01,18,02,57,18.40
2010,01,18,02,58,17.30
2010,01,18,02,59,16.50
2010,01,18,03,00,10.90
2010,01,18,03,01,14.80
2010,01,18,03,02,16.40
2010,01,18,03,03,16.90
2010,01,18,03,04,14.00
2010,01,18,03,05,18.50
2010,01,18,03,06,23.60
2010,01,18,03,07,19.60
2010,01,18,03,08,24.40
2010,01,18,03,09,19.30
2010,01,18,03,10,17.10
2010,01,18,03,11,24.50
2010,01,18,03,12,18.10
2010,01,18,03,13,18.10
2010,01,18,03,14,30.00
2010,01,18,03,15,21.20
2010,01,18,03,16,17.10
2010,01,18,03,17,15.40
2010,01,18,03,18,23.20
2010,01,18,03,19,27.60
2010,01,18,03,20,18.90
2010,01,18,03,21,10.10
2010,01,18,03,22,18.00
2010,01,18,03,23,24.50
2010,01,18,03,24,19.10
2010,01,18,03,25,19.90
2010,01,18,03,26,17.30
2010,01,18,03,27,30.30
2010,01,18,03,28,19.00
2010,01,18,03,29,20.10
2010,01,18,03,30,19.10
2010,01,18,03,31,13.90
2010,01,18,03,32,25.40
2010,01,18,03,33,26.70
2010,01,18,03,34,24.40
2010,01,18,03,35,23.50
2010,01,18,03,36,32.50
2010,01,18,03,37,20.00
2010,01,18,03,38,25.40
2010,01,18,03,39,22.80
2010,01,18,03,40,16.50
2010,01,18,03,41,14.60
2010,01,18,03,42,22.30
2010,01,18,03,43,31.90
2010,01,18,03,44,28.90
2010,01,18,03,45,21.80
2010,01,18,03,46,16.60
2010,01,18,03,47,17.90
2010,01,18,03,48,20.70
2010,01,18,03,49,20.00
2010,01,18,03,50,19.90
2010,01,18,03,51,24.70
2010,01,18,03,52,29.10
2010,01,18,03,53,21.20
2010,01,18,03,54,18.20
2010,01,18,03,55,20.00
2010,01,18,03,56,15.90
2010,01,18,03,57,20.70
2010,01,18,03,58,20.00
2010,01,18,03,59,20.30
2010,01,18,04,00,21.40
2010,01,18,04,01,13.10
2010,01,18,04,02,22.10
2010,01,18,04,03,17.20
2010,01,18,04,04,16.10
2010,01,18,04,05,26.80
2010,01,18,04,06,24.30
2010,01,18,04,07,20.10
2010,01,18,04,08,22.60
2010,01,18,04,09,20.30
2010,01,18,04,10,21.50
2010,01,18,04,11,23.70
2010,01,18,04,12,14.20
2010,01,18,04,13,17.10
2010,01,18,04,14,17.90
2010,01,18,04,15,11.40
2010,01,18,04,16,12.40
2010,01,18,04,17,19.20
2010,01,18,04,18,21.10
2010,01,18,04,19,14.90
2010,01,18,04,20,18.30
2010,01,18,04,21,15.00
2010,01,18,04,22,18.00
2010,01,18,04,23,13.80
2010,01,18,04,24,21.60
2010,01,18,04,25,22.00
2010,01,18,04,26,14.20
2010,01,18,04,27,25.50
2010,01,18,04,28,25.70
2010,01,18,04,29,21.60
2010,01,18,04,30,18.70
2010,01,18,04,31,25.70
2010,01,18,04,32,21.20
2010,01,18,04,33,26.70
2010,01,18,04,34,23.80
2010,01,18,04,35,23.60
2010,01,18,04,36,19.50
2010,01,18,04,37,15.60
2010,01,18,04,38,27.70
2010,01,18,04,39,23.10
2010,01,18,04,40,18.20
2010,01,18,04,41,24.40
2010,01,18,04,42,19.80
2010,01,18,04,43,17.90
2010,01,18,04,44,21.80
2010,01,18,04,45,16.50
2010,01,18,04,46,18.90
2010,01,18,04,47,15.70
2010,01,18,04,48,22.50
2010,01,18,04,49,16.70
2010,01,18,04,50,24.40
2010,01,18,04,51,27.10
2010,01,18,04,52,25.40
2010,01,18,04,53,22.90
2010,01,18,04,54,14.60
2010,01,18,04,55,22.40
2010,01,18,04,56,14.00
2010,01,18,04,57,20.00
2010,01,18,04,58,13.40
2010,01,18,04,59,16.90
2010,01,18,05,00,20.40
2010,01,18,05,01,18.20
2010,01,18,05,02,23.20
2010,01,18,05,03,18.70
2010,01,18,05,04,14.90
2010,01,18,05,05,21.00
2010,01,18,05,06,17.90
2010,01,18,05,07,25.30
2010,01,18,05,08,22.30
2010,01,18,05,09,27.80
2010,01,18,05,10,18.00
2010,01,18,05,11,27.20
2010,01,18,05,12,17.30
2010,01,18,05,13,19.50
2010,01,18,05,14,30.30
2010,01,18,05,15,22.30
2010,01,18,05,16,23.80
2010,01,18,05,17,22.60
2010,01,18,05,18,22.10
2010,01,18,05,19,25.20
2010,01,18,05,20,13.00
2010,01,18,05,21,16.80
2010,01,18,05,22,15.30
2010,01,18,05,23,19.60
2010,01,18,05,24,19.20
2010,01,18,05,25,23.70
2010,01,18,05,26,18.90
2010,01,18,05,27,12.60
2010,01,18,05,28,13.00
2010,01,18,05,29,20.80
2010,01,18,05,30,33.20
2010,01,18,05,31,17.90
2010,01,18,05,32,20.70
2010,01,18,05,33,20.10
2010,01,18,05,34,21.80
2010,01,18,05,35,21.20
2010,01,18,05,36,23.50
2010,01,18,05,37,14.50
2010,01,18,05,38,24.70
2010,01,18,05,39,26.10
2010,01,18,05,40,29.50
2010,01,18,05,41,24.10
2010,01,18,05,42,26.60
2010,01,18,05,43,19.30
2010,01,18,05,44,14.90
2010,01,18,05,45,17.40
2010,01,18,05,46,16.30
2010,01,18,05,47,20.40
2010,01,18,05,48,18.40
2010,01,18,05,49,22.50
2010,01,18,05,50,18.30
2010,01,18,05,51,22.00
2010,01,18,05,52,20.80
2010,01,18,05,53,24.60
2010,01,18,05,54,19.70
2010,01,18,05,55,24.70
2010,01,18,05,56,18.60
2010,01,18,05,57,18.30
2010,01,18,05,58,25.90
2010,01,18,05,59,23.70
2010,01,18,06,00,16.80
2010,01,18,06,01,20.30
2010,01,18,06,02,21.00
2010,01,18,06,03,29.20
2010,01,18,06,04,17.00
2010,01,18,06,05,19.70
2010,01,18,06,06,24.80
2010,01,18,06,07,26.30
2010,01,18,06,08,17.40
2010,01,18,06,09,21.30
2010,01,18,06,10,17.40
2010,01,18,06,11,21.20
2010,01,18,06,12,15.60
2010,01,18,06,13,17.60
2010,01,18,06,14,20.50
2010,01,18,06,15,21.10
2010,01,18,06,16,19.20
2010,01,18,06,17,17.20
2010,01,18,06,18,19.70
2010,01,18,06,19,14.20
2010,01,18,06,20,24.40
2010,01,18,06,21,17.10
2010,01,18,06,22,19.70
2010,01,18,06,23,19.10
2010,01,18,06,24,14.60
2010,01,18,06,25,17.10
2010,01,18,06,26,19.20
2010,01,18,06,27,14.50
2010,01,18,06,28,16.20
2010,01,18,06,29,17.50
2010,01,18,06,30,11.40
2010,01,18,06,31,19.70
2010,01,18,06,32,18.30
2010,01,18,06,33,21.60
2010,01,18,06,34,15.70
2010,01,18,06,35,16.20
2010,01,18,06,36,15.20
2010,01,18,06,37,18.00
2010,01,18,06,38,21.00
2010,01,18,06,39,20.40
2010,01,18,06,40,14.10
2010,01,18,06,41,12.30
2010,01,18,06,42,21.90
2010,01,18,06,43,15.70
2010,01,18,06,44,17.80
2010,01,18,06,45,17.10
2010,01,18,06,46,11.40
2010,01,18,06,47,12.30
2010,01,18,06,48,11.20
2010,01,18,06,49,12.10
2010,01,18,06,50,17.30
2010,01,18,06,51,8.60
2010,01,18,06,52,12.80
2010,01,18,06,53,7.20
2010,01,18,06,54,10.10
2010,01,18,06,55,6.90
2010,01,18,06,56,6.60
2010,01,18,06,57,9.90
2010,01,18,06,58,9.80
2010,01,18,06,59,10.40
2010,01,18,07,00,12.20
2010,01,18,07,01,7.30
2010,01,18,07,02,10.10
2010,01,18,07,03,4.40
2010,01,18,07,04,10.40
2010,01,18,07,05,4.70
2010,01,18,07,06,8.30
2010,01,18,07,07,4.30
2010,01,18,07,08,5.80
2010,01,18,07,09,5.00
2010,01,18,07,10,8.50
2010,01,18,07,11,12.10
2010,01,18,07,12,6.00
2010,01,18,07,13,12.20
2010,01,18,07,14,10.80
2010,01,18,07,15,11.70
2010,01,18,07,16,8.50
2010,01,18,07,17,8.20
2010,01,18,07,18,9.90
2010,01,18,07,19,11.80
2010,01,18,07,20,8.90
2010,01,18,07,21,7.60
2010,01,18,07,22,10.50
2010,01,18,07,23,14.10
2010,01,18,07,24,13.10
2010,01,18,07,25,14.20
2010,01,18,07,26,14.60
2010,01,18,07,27,7.40
2010,01,18,07,28,11.40
2010,01,18,07,29,15.30
2010,01,18,07,30,9.70
2010,01,18,07,31,13.40
2010,01,18,07,32,9.60
2010,01,18,07,33,17.20
2010,01,18,07,34,9.80
2010,01,18,07,35,7.10
2010,01,18,07,36,8.10
2010,01,18,07,37,5.70
2010,01,18,07,38,14.50
2010,01,18,07,39,14.30
2010,01,18,07,40,16.70
2010,01,18,07,41,15.50
2010,01,18,07,42,10.30
2010,01,18,07,43,12.90
2010,01,18,07,44,10.50
2010,01,18,07,45,16.00
2010,01,18,07,46,15.60
2010,01,18,07,47,19.90
2010,01,18,07,48,15.90
2010,01,18,07,49,15.90
2010,01,18,07,50,13.40
2010,01,18,07,51,10.70
2010,01,18,07,52,15.40
2010,01,18,07,53,18.50
2010,01,18,07,54,15.20
2010,01,18,07,55,16.90
2010,01,18,07,56,16.30
2010,01,18,07,57,24.20
2010,01,18,07,58,16.40
2010,01,18,07,59,13.80
2010,01,18,08,00,17.20
2010,01,18,08,01,11.30
2010,01,18,08,02,10.50
2010,01,18,08,03,16.90
2010,01,18,08,04,13.60
2010,01,18,08,05,11.30
2010,01,18,08,06,6.40
2010,01,18,08,07,9.50
2010,01,18,08,08,9.70
2010,01,18,08,09,7.60
2010,01,18,08,10,16.40
2010,01,18,08,11,12.50
2010,01,18,08,12,9.30
2010,01,18,08,13,10.10
2010,01,18,08,14,13.40
2010,01,18,08,15,7.10
2010,01,18,08,16,5.90
2010,01,18,08,17,13.20
2010,01,18,08,18,9.80
2010,01,18,08,19,11.10
2010,01,18,08,20,9.70
2010,01,18,08,21,12.70
2010,01,18,08,22,11.30
2010,01,18,08,23,11.00
2010,01,18,08,24,13.00
2010,01,18,08,25,7.10
2010,01,18,08,26,11.80
2010,01,18,08,27,13.90
2010,01,18,08,28,10.80
2010,01,18,08,29,10.00
2010,01,18,08,30,9.30
2010,01,18,08,31,5.70
2010,01,18,08,32,3.70
2010,01,18,08,33,5.70
2010,01,18,08,34,16.70
2010,01,18,08,35,8.70
2010,01,18,08,36,6.40
2010,01,18,08,37,4.40
2010,01,18,08,38,4.90
2010,01,18,08,39,4.70
2010,01,18,08,40,5.60
2010,01,18,08,41,4.80
2010,01,18,08,42,8.70
2010,01,18,08,43,5.80
2010,01,18,08,44,8.70
2010,01,18,08,45,9.60
2010,01,18,08,46,5.00
2010,01,18,08,47,5.70
2010,01,18,08,48,5.50
2010,01,18,08,49,7.80
2010,01,18,08,50,5.00
2010,01,18,08,51,4.20
2010,01,18,08,52,9.30
2010,01,18,08,53,6.20
2010,01,18,08,54,10.10
2010,01,18,08,55,6.50
2010,01,18,08,56,5.10
2010,01,18,08,57,5.50
2010,01,18,08,58,7.10
2010,01,18,08,59,9.10
2010,01,18,09,00,6.20
2010,01,18,09,01,8.90
2010,01,18,09,02,6.10
2010,01,18,09,03,6.00
2010,01,18,09,04,4.90
2010,01,18,09,05,3.80
2010,01,18,09,06,8.00
2010,01,18,09,07,7.40
2010,01,18,09,08,8.90
2010,01,18,09,09,7.30
2010,01,18,09,10,8.10
2010,01,18,09,11,16.50
2010,01,18,09,12,13.50
2010,01,18,09,13,8.90
2010,01,18,09,14,7.40
2010,01,18,09,15,3.20
2010,01,18,09,16,7.20
2010,01,18,09,17,15.80
2010,01,18,09,18,10.40
2010,01,18,09,19,14.80
2010,01,18,09,20,14.60
2010,01,18,09,21,8.90
2010,01,18,09,22,7.30
2010,01,18,09,23,6.60
2010,01,18,09,24,5.20
2010,01,18,09,25,7.50
2010,01,18,09,26,4.60
2010,01,18,09,27,7.50
2010,01,18,09,28,8.50
2010,01,18,09,29,3.10
2010,01,18,09,30,7.10
2010,01,18,09,31,15.90
2010,01,18,09,32,9.70
2010,01,18,09,33,12.40
2010,01,18,09,34,7.20
2010,01,18,09,35,5.90
2010,01,18,09,36,7.20
2010,01,18,09,37,3.40
2010,01,18,09,38,2.90
2010,01,18,09,39,4.90
2010,01,18,09,40,3.90
2010,01,18,09,41,3.90
2010,01,18,09,42,5.70
2010,01,18,09,43,5.20
2010,01,18,09,44,3.70
2010,01,18,09,45,4.20
2010,01,18,09,46,4.40
2010,01,18,09,47,4.20
2010,01,18,09,48,5.00
2010,01,18,09,49,5.80
2010,01,18,09,50,5.80
2010,01,18,09,51,5.60
2010,01,18,09,52,5.70
2010,01,18,09,53,5.60
2010,01,18,09,54,5.00
2010,01,18,09,55,6.00
2010,01,18,09,56,5.10
2010,01,18,09,57,7.10
2010,01,18,09,58,6.50
2010,01,18,09,59,6.00
2010,01,18,10,00,3.50
2010,01,18,10,01,6.90
2010,01,18,10,02,7.30
2010,01,18,10,03,6.90
2010,01,18,10,04,5.20
2010,01,18,10,05,6.60
2010,01,18,10,06,8.40
2010,01,18,10,07,10.50
2010,01,18,10,08,7.00
2010,01,18,10,09,5.90
2010,01,18,10,10,3.50
2010,01,18,10,11,2.80
2010,01,18,10,12,4.80
2010,01,18,10,13,7.00
2010,01,18,10,14,7.20
2010,01,18,10,15,5.10
2010,01,18,10,16,7.00
2010,01,18,10,17,7.40
2010,01,18,10,18,8.00
2010,01,18,10,19,10.10
2010,01,18,10,20,8.00
2010,01,18,10,21,8.10
2010,01,18,10,22,8.10
2010,01,18,10,23,9.60
2010,01,18,10,24,10.40
2010,01,18,10,25,6.60
2010,01,18,10,26,5.70
2010,01,18,10,27,4.80
2010,01,18,10,28,5.40
2010,01,18,10,29,6.40
2010,01,18,10,30,2.50
2010,01,18,10,31,2.90
2010,01,18,10,32,6.20
2010,01,18,10,33,6.80
2010,01,18,10,34,9.70
2010,01,18,10,35,5.00
2010,01,18,10,36,4.70
2010,01,18,10,37,6.10
2010,01,18,10,38,5.70
2010,01,18,10,39,5.40
2010,01,18,10,40,4.80
2010,01,18,10,41,7.40
2010,01,18,10,42,6.60
2010,01,18,10,43,3.20
2010,01,18,10,44,4.90
2010,01,18,10,45,6.50
2010,01,18,10,46,5.90
2010,01,18,10,47,6.20
2010,01,18,10,48,10.30
2010,01,18,10,49,7.30
2010,01,18,10,50,6.40
2010,01,18,10,51,6.00
2010,01,18,10,52,8.50
2010,01,18,10,53,4.40
2010,01,18,10,54,3.80
2010,01,18,10,55,3.90
2010,01,18,10,56,4.10
2010,01,18,10,57,7.10
2010,01,18,10,58,9.70
2010,01,18,10,59,8.50
2010,01,18,11,00,6.00
2010,01,18,11,01,12.60
2010,01,18,11,02,8.30
2010,01,18,11,03,10.20
2010,01,18,11,04,14.80
2010,01,18,11,05,11.50
2010,01,18,11,06,8.90
2010,01,18,11,07,12.20
2010,01,18,11,08,11.10
2010,01,18,11,09,11.80
2010,01,18,11,10,10.50
2010,01,18,11,11,13.90
2010,01,18,11,12,17.90
2010,01,18,11,13,14.30
2010,01,18,11,14,13.50
2010,01,18,11,15,10.90
2010,01,18,11,16,8.70
2010,01,18,11,17,16.20
2010,01,18,11,18,10.70
2010,01,18,11,19,9.40
2010,01,18,11,20,11.50
2010,01,18,11,21,13.50
2010,01,18,11,22,16.20
2010,01,18,11,23,9.60
2010,01,18,11,24,13.80
2010,01,18,11,25,10.70
2010,01,18,11,26,13.00
2010,01,18,11,27,13.80
2010,01,18,11,28,7.90
2010,01,18,11,29,9.70
2010,01,18,11,30,7.60
2010,01,18,11,31,9.30
2010,01,18,11,32,13.10
2010,01,18,11,33,13.50
2010,01,18,11,34,6.70
2010,01,18,11,35,8.60
2010,01,18,11,36,6.00
2010,01,18,11,37,13.00
2010,01,18,11,38,7.00
2010,01,18,11,39,6.40
2010,01,18,11,40,6.80
2010,01,18,11,41,7.00
2010,01,18,11,42,7.90
2010,01,18,11,43,7.80
2010,01,18,11,44,6.90
2010,01,18,11,45,9.00
2010,01,18,11,46,11.30
2010,01,18,11,47,10.00
2010,01,18,11,48,7.70
2010,01,18,11,49,6.90
2010,01,18,11,50,4.70
2010,01,18,11,51,7.20
2010,01,18,11,52,5.60
2010,01,18,11,53,3.70
2010,01,18,11,54,4.40
2010,01,18,11,55,6.30
2010,01,18,11,56,5.40
2010,01,18,11,57,4.10
2010,01,18,11,58,5.90
2010,01,18,11,59,11.40
2010,01,18,12,00,9.70
2010,01,18,12,01,10.60
2010,01,18,12,02,11.30
2010,01,18,12,03,6.40
2010,01,18,12,04,9.50
2010,01,18,12,05,8.90
2010,01,18,12,06,7.60
2010,01,18,12,07,9.30
2010,01,18,12,08,11.50
2010,01,18,12,09,10.90
2010,01,18,12,10,13.90
2010,01,18,12,11,11.10
2010,01,18,12,12,11.20
2010,01,18,12,13,8.80
2010,01,18,12,14,11.10
2010,01,18,12,15,17.40
2010,01,18,12,16,11.30
2010,01,18,12,17,10.50
2010,01,18,12,18,14.80
2010,01,18,12,19,13.00
2010,01,18,12,20,12.20
2010,01,18,12,21,12.30
2010,01,18,12,22,11.10
2010,01,18,12,23,10.10
2010,01,18,12,24,8.60
2010,01,18,12,25,7.90
2010,01,18,12,26,5.50
2010,01,18,12,27,10.90
2010,01,18,12,28,9.00
2010,01,18,12,29,19.10
2010,01,18,12,30,15.50
2010,01,18,12,31,10.90
2010,01,18,12,32,7.20
2010,01,18,12,33,10.90
2010,01,18,12,34,10.30
2010,01,18,12,35,11.50
2010,01,18,12,36,6.10
2010,01,18,12,37,4.20
2010,01,18,12,38,5.00
2010,01,18,12,39,7.10
2010,01,18,12,40,6.00
2010,01,18,12,41,8.70
2010,01,18,12,42,8.80
2010,01,18,12,43,8.10
2010,01,18,12,44,6.10
2010,01,18,12,45,6.80
2010,01,18,12,46,7.30
2010,01,18,12,47,9.50
2010,01,18,12,48,4.70
2010,01,18,12,49,11.30
2010,01,18,12,50,6.10
2010,01,18,12,51,2.70
2010,01,18,12,52,2.40
2010,01,18,12,53,1.30
2010,01,18,12,54,2.00
2010,01,18,12,55,1.90
2010,01,18,12,56,5.20
2010,01,18,12,57,4.60
2010,01,18,12,58,4.00
2010,01,18,12,59,3.10
2010,01,18,13,00,2.00
2010,01,18,13,01,6.00
2010,01,18,13,02,4.60
2010,01,18,13,03,3.50
2010,01,18,13,04,2.30
2010,01,18,13,05,5.10
2010,01,18,13,06,6.70
2010,01,18,13,07,4.00
2010,01,18,13,08,5.20
2010,01,18,13,09,1.40
2010,01,18,13,10,3.10
2010,01,18,13,11,7.60
2010,01,18,13,12,5.10
2010,01,18,13,13,3.20
2010,01,18,13,14,2.30
2010,01,18,13,15,2.00
2010,01,18,13,16,2.70
2010,01,18,13,17,1.50
2010,01,18,13,18,0.30
2010,01,18,13,19,1.20
2010,01,18,13,20,3.90
2010,01,18,13,21,3.10
2010,01,18,13,22,6.80
2010,01,18,13,23,6.30
2010,01,18,13,24,5.70
2010,01,18,13,25,5.10
2010,01,18,13,26,5.50
2010,01,18,13,27,4.80
2010,01,18,13,28,6.80
2010,01,18,13,29,4.30
2010,01,18,13,30,4.70
2010,01,18,13,31,5.50
2010,01,18,13,32,5.60
2010,01,18,13,33,10.40
2010,01,18,13,34,14.20
2010,01,18,13,35,7.40
2010,01,18,13,36,6.40
2010,01,18,13,37,9.00
2010,01,18,13,38,11.30
2010,01,18,13,39,8.90
2010,01,18,13,40,13.10
2010,01,18,13,41,10.30
2010,01,18,13,42,11.80
2010,01,18,13,43,10.80
2010,01,18,13,44,14.00
2010,01,18,13,45,12.60
2010,01,18,13,46,13.60
2010,01,18,13,47,9.30
2010,01,18,13,48,12.80
2010,01,18,13,49,7.70
2010,01,18,13,50,10.70
2010,01,18,13,51,10.10
2010,01,18,13,52,6.10
2010,01,18,13,53,5.00
2010,01,18,13,54,4.80
2010,01,18,13,55,3.70
2010,01,18,13,56,9.50
2010,01,18,13,57,7.50
2010,01,18,13,58,7.70
2010,01,18,13,59,4.90
2010,01,18,14,00,6.80
2010,01,18,14,01,9.10
2010,01,18,14,02,7.70
2010,01,18,14,03,5.70
2010,01,18,14,04,6.50
2010,01,18,14,05,7.10
2010,01,18,14,06,7.70
2010,01,18,14,07,6.40
2010,01,18,14,08,7.30
2010,01,18,14,09,5.60
2010,01,18,14,10,6.70
2010,01,18,14,11,3.90
2010,01,18,14,12,8.50
2010,01,18,14,13,6.40
2010,01,18,14,14,3.70
2010,01,18,14,15,5.20
2010,01,18,14,16,6.30
2010,01,18,14,17,6.90
2010,01,18,14,18,8.60
2010,01,18,14,19,8.40
2010,01,18,14,20,10.40
2010,01,18,14,21,9.20
2010,01,18,14,22,8.10
2010,01,18,14,23,8.20
2010,01,18,14,24,10.00
2010,01,18,14,25,8.60
2010,01,18,14,26,7.10
2010,01,18,14,27,10.30
2010,01,18,14,28,8.10
2010,01,18,14,29,6.30
2010,01,18,14,30,10.30
2010,01,18,14,31,9.30
2010,01,18,14,32,6.50
2010,01,18,14,33,8.80
2010,01,18,14,34,7.60
2010,01,18,14,35,7.10
2010,01,18,14,36,3.60
2010,01,18,14,37,3.10
2010,01,18,14,38,6.80
2010,01,18,14,39,9.20
2010,01,18,14,40,13.20
2010,01,18,14,41,5.80
2010,01,18,14,42,5.50
2010,01,18,14,43,8.60
2010,01,18,14,44,9.30
2010,01,18,14,45,16.80
2010,01,18,14,46,9.10
2010,01,18,14,47,7.40
2010,01,18,14,48,10.90
2010,01,18,14,49,12.20
2010,01,18,14,50,7.90
2010,01,18,14,51,11.30
2010,01,18,14,52,10.30
2010,01,18,14,53,6.40
2010,01,18,14,54,5.00
2010,01,18,14,55,6.20
2010,01,18,14,56,6.30
2010,01,18,14,57,7.00
2010,01,18,14,58,6.80
2010,01,18,14,59,9.30
2010,01,18,15,00,6.00
2010,01,18,15,01,10.70
2010,01,18,15,02,10.20
2010,01,18,15,03,11.50
2010,01,18,15,04,7.30
2010,01,18,15,05,5.90
2010,01,18,15,06,3.20
2010,01,18,15,07,2.20
2010,01,18,15,08,3.20
2010,01,18,15,09,3.60
2010,01,18,15,10,5.90
2010,01,18,15,11,9.00
2010,01,18,15,12,6.00
2010,01,18,15,13,3.80
2010,01,18,15,14,4.60
2010,01,18,15,15,1.60
2010,01,18,15,16,2.20
2010,01,18,15,17,3.10
2010,01,18,15,18,2.60
2010,01,18,15,19,2.10
2010,01,18,15,20,4.50
2010,01,18,15,21,6.00
2010,01,18,15,22,3.00
2010,01,18,15,23,2.00
2010,01,18,15,24,5.60
2010,01,18,15,25,4.70
2010,01,18,15,26,5.20
2010,01,18,15,27,1.90
2010,01,18,15,28,3.60
2010,01,18,15,29,3.90
2010,01,18,15,30,6.00
2010,01,18,15,31,8.00
2010,01,18,15,32,6.40
2010,01,18,15,33,6.50
2010,01,18,15,34,7.20
2010,01,18,15,35,5.80
2010,01,18,15,36,8.10
2010,01,18,15,37,10.10
2010,01,18,15,38,5.70
2010,01,18,15,39,4.50
2010,01,18,15,40,6.90
2010,01,18,15,41,5.10
2010,01,18,15,42,5.20
2010,01,18,15,43,3.70
2010,01,18,15,44,4.00
2010,01,18,15,45,2.50
2010,01,18,15,46,3.20
2010,01,18,15,47,1.40
2010,01,18,15,48,6.10
2010,01,18,15,49,4.90
2010,01,18,15,50,4.40
2010,01,18,15,51,3.90
2010,01,18,15,52,6.00
2010,01,18,15,53,4.80
2010,01,18,15,54,6.00
2010,01,18,15,55,3.90
2010,01,18,15,56,4.90
2010,01,18,15,57,8.70
2010,01,18,15,58,6.70
2010,01,18,15,59,6.00
2010,01,18,16,00,3.40
2010,01,18,16,01,5.50
2010,01,18,16,02,6.50
2010,01,18,16,03,4.30
2010,01,18,16,04,3.80
2010,01,18,16,05,4.50
2010,01,18,16,06,6.10
2010,01,18,16,07,5.50
2010,01,18,16,08,4.30
2010,01,18,16,09,4.10
2010,01,18,16,10,5.20
2010,01,18,16,11,6.00
2010,01,18,16,12,4.90
2010,01,18,16,13,3.10
2010,01,18,16,14,5.60
2010,01,18,16,15,5.70
2010,01,18,16,16,4.40
2010,01,18,16,17,4.60
2010,01,18,16,18,5.10
2010,01,18,16,19,4.40
2010,01,18,16,20,5.80
2010,01,18,16,21,4.30
2010,01,18,16,22,5.70
2010,01,18,16,23,6.40
2010,01,18,16,24,4.80
2010,01,18,16,25,3.20
2010,01,18,16,26,6.20
2010,01,18,16,27,3.60
2010,01,18,16,28,5.70
2010,01,18,16,29,6.40
2010,01,18,16,30,5.70
2010,01,18,16,31,4.30
2010,01,18,16,32,2.60
2010,01,18,16,33,3.90
2010,01,18,16,34,3.80
2010,01,18,16,35,4.30
2010,01,18,16,36,4.20
2010,01,18,16,37,3.30
2010,01,18,16,38,3.80
2010,01,18,16,39,4.50
2010,01,18,16,40,2.20
2010,01,18,16,41,3.50
2010,01,18,16,42,3.90
2010,01,18,16,43,3.50
2010,01,18,16,44,4.40
2010,01,18,16,45,4.30
2010,01,18,16,46,4.70
2010,01,18,16,47,4.50
2010,01,18,16,48,5.00
2010,01,18,16,49,6.10
2010,01,18,16,50,5.10
2010,01,18,16,51,5.70
2010,01,18,16,52,5.70
2010,01,18,16,53,5.10
2010,01,18,16,54,4.10
2010,01,18,16,55,4.50
2010,01,18,16,56,6.00
2010,01,18,16,57,5.90
2010,01,18,16,58,5.10
2010,01,18,16,59,4.30
2010,01,18,17,00,5.00
2010,01,18,17,01,6.00
2010,01,18,17,02,6.00
2010,01,18,17,03,5.10
2010,01,18,17,04,6.00
2010,01,18,17,05,3.50
2010,01,18,17,06,4.40
2010,01,18,17,07,6.10
2010,01,18,17,08,5.30
2010,01,18,17,09,2.90
2010,01,18,17,10,4.30
2010,01,18,17,11,2.50
2010,01,18,17,12,4.20
2010,01,18,17,13,5.40
2010,01,18,17,14,4.00
2010,01,18,17,15,3.90
2010,01,18,17,16,4.90
2010,01,18,17,17,2.60
2010,01,18,17,18,3.10
2010,01,18,17,19,3.50
2010,01,18,17,20,4.70
2010,01,18,17,21,5.40
2010,01,18,17,22,3.80
2010,01,18,17,23,5.00
2010,01,18,17,24,2.90
2010,01,18,17,25,3.00
2010,01,18,17,26,4.20
2010,01,18,17,27,4.20
2010,01,18,17,28,3.50
2010,01,18,17,29,4.30
2010,01,18,17,30,4.00
2010,01,18,17,31,7.00
2010,01,18,17,32,6.10
2010,01,18,17,33,6.80
2010,01,18,17,34,6.40
2010,01,18,17,35,4.70
2010,01,18,17,36,4.00
2010,01,18,17,37,1.80
2010,01,18,17,38,2.90
2010,01,18,17,39,1.90
2010,01,18,17,40,3.50
2010,01,18,17,41,1.80
2010,01,18,17,42,1.80
2010,01,18,17,43,4.30
2010,01,18,17,44,3.70
2010,01,18,17,45,3.50